Destin, Florida, United States (32540)
Lat: 30.39N, Lon: 86.5W
Wx Zone: FLZ006
Local Info
Past Weather Observations for Wednesday, October 29, 2014

NOTE: This archive is for the closest National Weather Service station to Destin. Information may differ from the station used for current weather conditions.

Click here for Long-term Archive

Time Weather Temperature Dewpoint Humidity Pressure Winds Precip Visibility
23:59
Overcast
70°F / 21°C 66°F / 19°C 88% 30.04 in
(1017 mb)
NNE 10.4 mph
(NNE 17 kph)
- 10SM
23:53
Overcast
70°F / 21°C 66°F / 19°C 88% 30.04 in
(1017 mb)
NNE 11.5 mph
(NNE 19 kph)
- 10SM
23:14
Overcast
70°F / 21°C 66°F / 19°C 88% 30.04 in
(1017 mb)
N 6.9 mph
(N 11 kph)
- 10SM
22:53
Overcast
70°F / 21°C 68°F / 20°C 94% 30.04 in
(1017 mb)
N 6.9 mph
(N 11 kph)
- 10SM
22:24
Overcast
72°F / 22°C 68°F / 20°C 88% 30.04 in
(1017 mb)
N 5.8 mph
(N 9 kph)
- 10SM
22:13
Overcast
72°F / 22°C 70°F / 21°C 94% 30.04 in
(1017 mb)
N 8.1 mph
(N 13 kph)
- 10SM
21:53
Overcast
72°F / 22°C 70°F / 21°C 94% 30.04 in
(1017 mb)
N 5.8 mph
(N 9 kph)
0.01 in
(0.25 mm)
10SM
21:49
Overcast
72°F / 22°C 70°F / 21°C 94% 30.04 in
(1017 mb)
N 6.9 mph
(N 11 kph)
0.01 in
(0.25 mm)
10SM
21:39
Overcast
72°F / 22°C 70°F / 21°C 94% 30.04 in
(1017 mb)
NNW 3.5 mph
(NNW 6 kph)
0.01 in
(0.25 mm)
10SM
20:53
Overcast
Heavy Rain
72°F / 22°C 70°F / 21°C 94% 30.04 in
(1017 mb)
Calm 0.40 in
(10.16 mm)
4SM
20:45
Overcast
Rain
72°F / 22°C 70°F / 21°C 94% 30.04 in
(1017 mb)
Calm 0.37 in
(9.40 mm)
4SM
20:40
Overcast
Heavy Rain
72°F / 22°C 70°F / 21°C 94% 30.04 in
(1017 mb)
E 3.5 mph
(E 6 kph)
0.36 in
(9.14 mm)
2SM
20:29
Overcast
Heavy Rain
72°F / 22°C 70°F / 21°C 94% 30.04 in
(1017 mb)
Calm 0.28 in
(7.11 mm)
3/4SM
20:25
Overcast
Heavy Rain
72°F / 22°C 70°F / 21°C 94% 30.04 in
(1017 mb)
Variable 3.5 mph
(Variable 6 kph)
0.15 in
(3.81 mm)
1 3/4SM
20:10
Overcast
Light Rain
72°F / 22°C 70°F / 21°C 94% 30.04 in
(1017 mb)
ESE 6.9 mph
(ESE 11 kph)
0.00 in
(0.00 mm)
10SM
20:01
Overcast
72°F / 22°C 70°F / 21°C 94% 30.04 in
(1017 mb)
Calm - 10SM
19:53
Overcast
72°F / 22°C 70°F / 21°C 94% 30.04 in
(1017 mb)
Calm 0.19 in
(4.83 mm)
10SM
19:13
Overcast
Light Rain
72°F / 22°C 70°F / 21°C 94% 30.04 in
(1017 mb)
Calm 0.19 in
(4.83 mm)
10SM
19:08
Overcast
Light Rain
72°F / 22°C 70°F / 21°C 94% 30.04 in
(1017 mb)
NE 3.5 mph
(NE 6 kph)
0.19 in
(4.83 mm)
2 1/2SM
18:59
Overcast
Heavy Rain
72°F / 22°C 70°F / 21°C 94% 30.04 in
(1017 mb)
Variable 3.5 mph
(Variable 6 kph)
0.16 in
(4.06 mm)
3/4SM
18:53
Overcast
Heavy Rain
73°F / 23°C 70°F / 21°C 89% 30.04 in
(1017 mb)
NW 6.9 mph
(NW 11 kph)
0.17 in
(4.32 mm)
2 1/2SM
18:46
Overcast
Heavy Rain
72°F / 22°C 68°F / 20°C 88% 30.04 in
(1017 mb)
NE 8.1 mph
(NE 13 kph)
0.05 in
(1.27 mm)
5SM
17:53
Partly Cloudy
77°F / 25°C 68°F / 20°C 74% 30.01 in
(1016 mb)
SW 3.5 mph
(SW 6 kph)
- 10SM
16:53
Partly Cloudy
77°F / 25°C 68°F / 20°C 74% 30.01 in
(1016 mb)
SW 4.6 mph
(SW 7 kph)
- 10SM
15:53
Mostly Cloudy
79°F / 26°C 68°F / 20°C 70% 30.01 in
(1016 mb)
SSE 5.8 mph
(SSE 9 kph)
- 10SM
14:53
Clear
81°F / 27°C 68°F / 20°C 66% 29.98 in
(1015 mb)
S 6.9 mph
(S 11 kph)
- 10SM
13:53
Clear
81°F / 27°C 68°F / 20°C 66% 30.01 in
(1016 mb)
S 5.8 mph
(S 9 kph)
-
12:53
Clear
81°F / 27°C 66°F / 19°C 62% 30.04 in
(1017 mb)
S 6.9 mph
(S 11 kph)
- 10SM
11:53
Clear
81°F / 27°C 66°F / 19°C 62% 30.06 in
(1018 mb)
S 4.6 mph
(S 7 kph)
- 10SM
10:53
Clear
79°F / 26°C 70°F / 21°C 74% 30.09 in
(1019 mb)
Variable 4.6 mph
(Variable 7 kph)
- 10SM
10:27
Mostly Cloudy
79°F / 26°C 70°F / 21°C 74% 30.09 in
(1019 mb)
SW 5.8 mph
(SW 9 kph)
- 10SM
10:19
Overcast
79°F / 26°C 70°F / 21°C 74% 30.09 in
(1019 mb)
Variable 3.5 mph
(Variable 6 kph)
- 10SM
10:07
Overcast
79°F / 26°C 72°F / 22°C 79% 30.09 in
(1019 mb)
Calm - 10SM
09:53
Mostly Cloudy
79°F / 26°C 72°F / 22°C 79% 30.09 in
(1019 mb)
Variable 4.6 mph
(Variable 7 kph)
- 10SM
08:53
Overcast
75°F / 24°C 70°F / 21°C 83% 30.09 in
(1019 mb)
Calm 0.01 in
(0.25 mm)
10SM
07:53
Overcast
Light Rain
73°F / 23°C 68°F / 20°C 83% 30.09 in
(1019 mb)
Calm 0.00 in
(0.00 mm)
10SM
06:53
Overcast
72°F / 22°C 68°F / 20°C 88% 30.09 in
(1019 mb)
Calm - 10SM
05:53
Overcast
72°F / 22°C 64°F / 18°C 78% 30.06 in
(1018 mb)
SE 3.5 mph
(SE 6 kph)
0.02 in
(0.51 mm)
10SM
04:53
Overcast
Rain
77°F / 25°C 70°F / 21°C 79% 30.06 in
(1018 mb)
Calm 0.00 in
(0.00 mm)
6SM
03:53
Overcast
77°F / 25°C 70°F / 21°C 79% 30.06 in
(1018 mb)
Variable 3.5 mph
(Variable 6 kph)
- 10SM
02:53
Mostly Cloudy
77°F / 25°C 70°F / 21°C 79% 30.06 in
(1018 mb)
Variable 4.6 mph
(Variable 7 kph)
- 10SM
01:53
Overcast
77°F / 25°C 70°F / 21°C 79% 30.06 in
(1018 mb)
S 5.8 mph
(S 9 kph)
- 10SM
00:53
Overcast
77°F / 25°C 70°F / 21°C 79% 30.06 in
(1018 mb)
Variable 4.6 mph
(Variable 7 kph)
- 10SM
Time Weather Temperature Dewpoint Humidity Pressure Winds Precip Visibility


Weather for websites

WeatherForYou.com, LLC is not responsible for any damages or problems caused by this service. Current weather conditions are obtained from the closest station including government and personal stations which may have varying degrees of accuracy. Weather forecasts are derived from the NOAA NDFD. Like all things, this site belongs to Jesus Christ... He just trusts me to maintain it. If you have any questions or comments email webmaster@weatherforyou.com

Copyright © 2014, WeatherForYou.com LLC. All rights reserved.